Regional Weather Roundup
Issued by NWS

Home | Current Version | Previous Version | Graphics & Text | Print | Product List | Glossary On
Versions: 1 2 3 4 5 6 7 8 9 10 11 12 13 14 15 16 17 18 19 20 21 22 23 24 25 26 27
000
ASUS45 KSLC 190510
RWRUT

UTAH REGIONAL WEATHER ROUNDUP
NATIONAL WEATHER SERVICE SALT LAKE CITY UT
1100 PM MDT MON SEP 18 2017

UTZ001>011-023>025-190600-

NORTHERN UTAH

CITY           SKY/WX    TMP DP  RH WIND       PRES   REMARKS
BRIGHAM CITY   CLOUDY    58  47  66 SE6       29.78F
HILL AFB       CLOUDY    61  43  50 N18       29.77F
LOGAN          LGT RAIN  53  50  89 SW8       29.81F
OGDEN          LGT RAIN  61  45  55 N14G23    29.77R
SALT LAKE CITY CLOUDY    71  46  40 W7        29.73R
TOOELE VALLEY  CLOUDY    66  48  52 N16G25    29.75R
WENDOVER       CLOUDY    71  31  22 NW22      29.70F
HEBER CITY     CLOUDY    70  30  23 SW32G44   29.77F
WEST JORDAN    CLOUDY    71  48  43 N7        29.75R

$$

UTZ011>015-024>027-190600-

CENTRAL/NORTHEAST UTAH

CITY           SKY/WX    TMP DP  RH WIND       PRES   REMARKS
PROVO AIRPORT  CLOUDY    71  41  33 S20G26    29.76S
MOAB/CANYONLAN CLEAR     68  28  22 SW10      29.82F
DELTA          CLOUDY    68  34  28 S18       29.82S
PRICE          PTCLDY    60  32  34 E7        29.88F
ROOSEVELT      CLOUDY    54  41  62 CALM      29.83S
VERNAL         CLEAR     67  27  22 S15       29.80F

$$

UTZ013>016-019>022-027-190600-

SOUTHERN UTAH

CITY           SKY/WX    TMP DP  RH WIND       PRES   REMARKS
BRYCE CANYON   CLEAR     54  32  43 S10       30.08F
CEDAR CITY     MOCLDY    67  33  28 S25G33    29.92F
MILFORD        PTCLDY    65  37  35 S12       29.87F
ST GEORGE      CLOUDY    78  37  22 S12       29.83F
HANKSVILLE     CLEAR     73  27  17 SW13      29.85S
BLANDING         N/A     61  20  20 SE6       30.07F

$$

REGIONAL REPORTS     COLORADO/ARIZONA

CITY           SKY/WX    TMP DP  RH WIND       PRES   REMARKS
CRAIG, CO      CLEAR     62  28  27 CALM      29.90F
GRAND JUNCTION CLEAR     62  28  27 SE10      29.88F
RIFLE, CO      CLOUDY    63  25  23 SE14      29.91F
MONTROSE, CO   CLOUDY    59  29  31 S10       29.99F
CORTEZ, CO     CLEAR     49  33  54 CALM      30.06R
PAGE, AZ       CLEAR     76  23  14 SW7       29.90F
GRAND CANYON   CLEAR     56  23  27 S9        30.13F
KINGMAN, AZ    CLEAR     70  41  34 S12       29.92F
FLAGSTAFF, AZ  CLEAR     53  23  31 W8        30.18F

$$

REGIONAL REPORTS    NEVADA/IDAHO/WYOMING

CITY           SKY/WX    TMP DP  RH WIND       PRES   REMARKS
LAS VEGAS, NV  CLEAR     84  44  24 S10       29.76S
ELY, NY        MOCLDY    65  32  29 S22G30    29.86S
ELKO, NV       CLOUDY    65  34  31 W25G32    29.78S
POCATELLO, ID  CLOUDY    61  39  44 S15       29.68F
BURLEY, ID     CLOUDY    54  42  64 W10G22    29.73R
FORT BRIDGER,  CLOUDY    55  43  63 W18       29.87F
EVANSTON, WY   LGT RAIN  51  45  79 W18       29.86S
ROCK SPRINGS,  CLOUDY    58  30  34 S13       29.83F
KEMMERER, WY     N/A     48  43  81 SW9       29.89S

$$




USA.gov is the U.S. government's official web portal to all federal, state and local government web resources and services.